Hourly Data Report for October 02, 2017

All times are specified in Local Standard Time (LST). Add 1 hour to adjust for Daylight Saving Time where and when it is observed.

MOOSE CREEK WELLS
ONTARIO

45°15'04.000" N
74°57'46.000" W
84.50 m
6105397
71635
TCK

Download Data

Hourly Data (October 2017)
Hourly Data Report for October 2, 2017
Temp Definition
°C
Dew Point Temp Definition
°C
Rel Hum Definition
%
Wind Dir Definition
10's deg

Wind Spd Definition
km/h
Visibility Definition
km
Stn Press Definition
kPa
Hmdx Definition


Wind Chill Definition


Weather Definition


TIME
00:00 5.0 4.6 97 18 3   101.67     LegendNANA
01:00 4.0 3.9 99   0   101.71     LegendNANA
02:00 4.1 4.1 100   0   101.69     LegendNANA
03:00 2.8 2.8 100   0   101.72     LegendNANA
04:00 2.0 2.0 100 0 1   101.75     LegendNANA
05:00 1.9 1.9 100   0   101.79     LegendNANA
06:00 1.9 1.9 100   0   101.87     LegendNANA
07:00 3.4 3.4 100 0 1   101.93     LegendNANA
08:00 8.3 7.1 92   0   101.98     LegendNANA
09:00 12.2 8.4 78 5 2   102.03     LegendNANA
10:00 16.3 9.7 65 5 2   102.04     LegendNANA
11:00 18.6 10.4 59 33 3   102.04     LegendNANA
12:00 18.4 7.6 49 7 8   101.99     LegendNANA
13:00 19.3 8.9 51 7 5   101.97     LegendNANA
14:00 19.3 7.0 45 10 7   101.96     LegendNANA
15:00 19.2 8.7 51 7 8   101.95     LegendNANA
16:00 18.8 7.8 49 9 10   101.98     LegendNANA
17:00 17.5 8.4 55 8 7   102.03     LegendNANA
18:00 12.3 9.0 80 8 6   102.05     LegendNANA
19:00 10.7 8.4 86 7 3   102.08     LegendNANA
20:00 8.9 7.8 93   0   102.08     LegendNANA
21:00 7.7 7.0 95 8 5   102.10     LegendNANA
22:00 8.5 7.3 92 7 5   102.11     LegendNANA
23:00 7.0 6.1 94 10 5   102.12     LegendNANA

Notes on Data Quality.

Legend

  • E = Estimated
  • M = Missing
  • NA = Not Available
  • ‡ = Partner data that is not subject to review by the National Climate Archives
Date modified: